TimeHST,TemperatureF,Dew PointF,Humidity,Sea Level PressureIn,VisibilityMPH,Wind Direction,Wind SpeedMPH,Gust SpeedMPH,PrecipitationIn,Events,Conditions,WindDirDegrees,DateUTC
12:53 AM,68.0,55.9,65,30.00,10.0,SW,6.9,-,N/A,,Mostly Cloudy,220,2013-08-19 10:53:00
1:53 AM,68.0,51.1,55,29.99,10.0,SW,3.5,-,N/A,,Mostly Cloudy,220,2013-08-19 11:53:00
2:53 AM,66.9,52.0,59,29.97,10.0,SW,5.8,-,N/A,,Mostly Cloudy,230,2013-08-19 12:53:00
3:53 AM,68.0,55.0,63,29.97,10.0,SW,6.9,-,0.00,,Partly Cloudy,220,2013-08-19 13:53:00
4:53 AM,69.1,48.0,47,29.97,10.0,SW,6.9,-,N/A,,Mostly Cloudy,230,2013-08-19 14:53:00
5:53 AM,69.1,51.1,53,29.99,10.0,SW,5.8,-,N/A,,Mostly Cloudy,220,2013-08-19 15:53:00
6:53 AM,70.0,55.9,61,30.00,10.0,SW,5.8,-,N/A,,Scattered Clouds,230,2013-08-19 16:53:00
7:53 AM,75.0,59.0,57,30.00,10.0,SW,4.6,-,N/A,,Partly Cloudy,220,2013-08-19 17:53:00
8:53 AM,80.1,62.1,54,30.01,10.0,SSE,3.5,-,N/A,,Partly Cloudy,150,2013-08-19 18:53:00
9:53 AM,80.1,62.1,54,30.01,10.0,East,5.8,-,N/A,,Partly Cloudy,100,2013-08-19 19:53:00
9:54 AM,82.4,64.4,54,30.02,10.0,East,8.1,-,N/A,,Scattered Clouds,80,2013-08-19 19:54:00
10:53 AM,82.9,63.0,51,30.00,10.0,ENE,10.4,-,N/A,,Mostly Cloudy,70,2013-08-19 20:53:00
11:53 AM,81.0,66.9,62,29.99,10.0,East,11.5,-,N/A,,Mostly Cloudy,80,2013-08-19 21:53:00
12:53 PM,81.0,69.1,67,29.99,10.0,ENE,13.8,-,N/A,,Mostly Cloudy,70,2013-08-19 22:53:00
1:53 PM,80.1,68.0,67,29.97,10.0,NE,12.7,-,N/A,,Mostly Cloudy,50,2013-08-19 23:53:00
2:53 PM,81.0,66.0,60,29.96,10.0,ENE,6.9,-,N/A,,Mostly Cloudy,60,2013-08-20 00:53:00
3:53 PM,79.0,68.0,69,29.95,10.0,ENE,10.4,-,N/A,,Mostly Cloudy,70,2013-08-20 01:53:00
4:53 PM,79.0,68.0,69,29.95,10.0,East,8.1,-,N/A,,Mostly Cloudy,80,2013-08-20 02:53:00
5:53 PM,77.0,70.0,79,29.96,10.0,ENE,9.2,-,N/A,,Mostly Cloudy,70,2013-08-20 03:53:00
6:53 PM,77.0,70.0,79,29.96,10.0,ENE,9.2,-,N/A,,Mostly Cloudy,70,2013-08-20 04:53:00
7:11 PM,75.0,72.0,90,29.97,10.0,ENE,9.2,-,N/A,,Mostly Cloudy,70,2013-08-20 05:11:00
7:53 PM,75.0,72.0,90,29.96,10.0,ENE,9.2,-,N/A,Rain,Light Rain,70,2013-08-20 05:53:00
8:53 PM,73.0,72.0,96,29.99,10.0,WSW,8.1,-,N/A,Rain,Light Rain,250,2013-08-20 06:53:00
9:53 PM,73.0,72.0,96,30.01,7.0,SW,4.6,-,0.14,Rain,Light Rain,220,2013-08-20 07:53:00
10:20 PM,73.0,70.0,90,30.02,2.5,SSW,4.6,-,0.36,Rain,Light Rain,210,2013-08-20 08:20:00
10:53 PM,73.0,70.0,90,30.01,4.0,SW,3.5,-,0.50,Rain,Light Rain,230,2013-08-20 08:53:00
11:22 PM,73.0,70.0,90,30.02,2.5,SSE,3.5,-,0.16,Rain,Rain,160,2013-08-20 09:22:00
11:53 PM,73.0,70.0,90,30.01,2.5,SSW,3.5,-,0.27,Rain,Light Rain,200,2013-08-20 09:53:00